This is the latest recevied weather packets stored in our database for station/object OK1PHM-12. If no packets are shown the sender has not sent any weather packets the latest 10 day(s).
| Time | Temp. | Humidity | Pressure | Rain* | Wind** | Luminosity | Snow |
|---|---|---|---|---|---|---|---|
| 1778285779 | 8.33° C | 92% | 1021.7 hPa | - | - | - | - |
| 1778284879 | 8.33° C | 92% | 1021.6 hPa | - | - | - | - |
| 1778283978 | 7.78° C | 92% | 1021.8 hPa | - | - | - | - |
| 1778283077 | 7.78° C | 92% | 1021.8 hPa | - | - | - | - |
| 1778282176 | 7.78° C | 92% | 1022 hPa | - | - | - | - |
| 1778281275 | 7.78° C | 92% | 1021.9 hPa | - | - | - | - |
| 1778280375 | 8.33° C | 92% | 1022 hPa | - | - | - | - |
| 1778279474 | 8.33° C | 91% | 1021.9 hPa | - | - | - | - |
| 1778278573 | 8.89° C | 90% | 1021.6 hPa | - | - | - | - |
| 1778277672 | 9.44° C | 90% | 1021.5 hPa | - | - | - | - |
| 1778276771 | 10° C | 87% | 1021.4 hPa | - | - | - | - |
| 1778275871 | 10.56° C | 87% | 1021.5 hPa | - | - | - | - |
| 1778274970 | 11.11° C | 85% | 1021.5 hPa | - | - | - | - |
| 1778274069 | 11.11° C | 85% | 1021.5 hPa | - | - | - | - |
| 1778273168 | 11.11° C | 86% | 1021.4 hPa | - | - | - | - |
| 1778272267 | 11.11° C | 86% | 1021.3 hPa | - | - | - | - |
| 1778271366 | 10.56° C | 86% | 1021.3 hPa | - | - | - | - |
| 1778270466 | 10.56° C | 86% | 1021.1 hPa | - | - | - | - |
| 1778269565 | 10.56° C | 85% | 1020.9 hPa | - | - | - | - |
| 1778268663 | 10.56° C | 85% | 1020.9 hPa | - | - | - | - |
| 1778267763 | 11.11° C | 84% | 1020.6 hPa | - | - | - | - |
| 1778266862 | 11.67° C | 82% | 1020.5 hPa | - | - | - | - |
| 1778265961 | 11.67° C | 80% | 1020.3 hPa | - | - | - | - |
| 1778265060 | 12.78° C | 78% | 1020.1 hPa | - | - | - | - |
| 1778264159 | 13.33° C | 77% | 1020 hPa | - | - | - | - |
* Rain since midnight (hover to see other rain measurements)
** Current wind speed in m/s (hover to see current wind gust speed)